Location: *
(51.1248°S, 108.4023°W)
Time: 19:49:36
(UTC+00:00)

Cosmos 1937 Rocket - Pass Details

Date: 17 October 2021
Orbit: 746 x 781 km, 74.0° (Epoch: 03 December)

Event Time Altitude Azimuth Distance (km) Brightness Sun altitude
Rises 10:40:43 0° 27° (NNE) 3,268 6.7 -12.9°
Reaches altitude 10° 10:43:53 10° 47° (NE) 2,351 6.2 -12.5°
Maximum altitude 10:47:14 17° 86° (E) 1,913 6.3 -12.1°
Drops below altitude 10° 10:50:36 10° 125° (SE) 2,369 7.6 -11.6°
Sets 10:53:47 0° 143° (SE) 3,303 8.2 -11.2°
